Stündliche Wetter Abramovo

Heute, 17 Juni, Donnerstag

Zeit Temperatur Niederschläge Wind Luftdruck Luftfeuchtigkeit
00:00 +12°C° 0 mm 2 m/S 749 mmHg 73%
01:00 +12°C° 0 mm 2 m/S 749 mmHg 75%
02:00 +10°C° 0 mm 2 m/S 750 mmHg 76%
03:00 +12°C° 0 mm 1 m/S 750 mmHg 76%
04:00 +13°C° 0 mm 1 m/S 750 mmHg 75%
05:00 +13°C° 0 mm 0 m/S 751 mmHg 75%
06:00 +15°C° 0 mm 0 m/S 751 mmHg 68%
07:00 +16°C° 0 mm 0 m/S 751 mmHg 62%
08:00 +18°C° 0 mm 0 m/S 751 mmHg 56%
09:00 +20°C° 0 mm 0 m/S 752 mmHg 51%
10:00 +21°C° 0 mm 0 m/S 752 mmHg 47%
11:00 +24°C° 0 mm 1 m/S 752 mmHg 43%
12:00 +25°C° 0 mm 1 m/S 752 mmHg 42%
13:00 +25°C° 0 mm 1 m/S 752 mmHg 40%
14:00 +26°C° 0 mm 1 m/S 752 mmHg 39%
15:00 +25°C° 0 mm 1 m/S 752 mmHg 41%
16:00 +25°C° 0 mm 1 m/S 752 mmHg 44%
17:00 +23°C° 0 mm 0 m/S 751 mmHg 46%
18:00 +23°C° 0 mm 1 m/S 752 mmHg 55%
19:00 +21°C° 0 mm 1 m/S 752 mmHg 64%
20:00 +19°C° 0 mm 1 m/S 752 mmHg 73%
21:00 +18°C° 0 mm 1 m/S 752 mmHg 75%
22:00 +16°C° 0 mm 1 m/S 752 mmHg 78%
23:00 +15°C° 0 mm 1 m/S 753 mmHg 80%

Morgen, 18 Juni, Freitag

Zeit Temperatur Niederschläge Wind Luftdruck Luftfeuchtigkeit
00:00 +15°C° 0 mm 1 m/S 753 mmHg 81%
01:00 +14°C° 0 mm 1 m/S 753 mmHg 82%
02:00 +14°C° 0 mm 1 m/S 753 mmHg 84%
03:00 +14°C° 0 mm 1 m/S 753 mmHg 82%
04:00 +15°C° 0 mm 1 m/S 753 mmHg 81%
05:00 +16°C° 0 mm 1 m/S 753 mmHg 79%
06:00 +19°C° 0 mm 1 m/S 753 mmHg 72%
07:00 +21°C° 0 mm 1 m/S 754 mmHg 65%
08:00 +23°C° 0 mm 1 m/S 754 mmHg 58%
09:00 +24°C° 0 mm 2 m/S 753 mmHg 54%
10:00 +25°C° 0 mm 2 m/S 753 mmHg 50%
11:00 +26°C° 0 mm 2 m/S 753 mmHg 46%
12:00 +26°C° 0 mm 2 m/S 753 mmHg 46%
13:00 +27°C° 0 mm 2 m/S 753 mmHg 46%
14:00 +27°C° 0 mm 2 m/S 753 mmHg 46%
15:00 +27°C° 0 mm 2 m/S 752 mmHg 50%
16:00 +27°C° 0 mm 3 m/S 752 mmHg 54%
17:00 +26°C° 0 mm 3 m/S 752 mmHg 58%
18:00 +24°C° 0 mm 3 m/S 752 mmHg 66%
19:00 +21°C° 0 mm 2 m/S 752 mmHg 73%
20:00 +20°C° 0 mm 2 m/S 752 mmHg 81%
21:00 +19°C° 0 mm 2 m/S 752 mmHg 81%
22:00 +18°C° 0 mm 2 m/S 752 mmHg 82%
23:00 +17°C° 0 mm 2 m/S 753 mmHg 83%

übermorgen, 19 Juni, Samstag

Zeit Temperatur Niederschläge Wind Luftdruck Luftfeuchtigkeit
00:00 +16°C° 0 mm 2 m/S 753 mmHg 85%
01:00 +16°C° 0 mm 2 m/S 753 mmHg 87%
02:00 +15°C° 0 mm 2 m/S 753 mmHg 89%
03:00 +16°C° 0 mm 2 m/S 753 mmHg 88%
04:00 +16°C° 0 mm 2 m/S 753 mmHg 86%
05:00 +17°C° 0 mm 2 m/S 753 mmHg 84%
06:00 +19°C° 0 mm 2 m/S 753 mmHg 78%
07:00 +20°C° 0 mm 2 m/S 753 mmHg 71%
08:00 +23°C° 0 mm 2 m/S 753 mmHg 64%
09:00 +24°C° 0 mm 2 m/S 753 mmHg 60%
10:00 +26°C° 0 mm 3 m/S 752 mmHg 56%
11:00 +27°C° 0 mm 3 m/S 752 mmHg 52%
12:00 +27°C° 0 mm 3 m/S 752 mmHg 51%
13:00 +28°C° 0 mm 3 m/S 752 mmHg 50%
14:00 +28°C° 0 mm 3 m/S 751 mmHg 49%
15:00 +28°C° 0 mm 3 m/S 751 mmHg 52%
16:00 +27°C° 0 mm 3 m/S 751 mmHg 55%
17:00 +27°C° 0 mm 3 m/S 751 mmHg 58%
18:00 +25°C° 0 mm 3 m/S 751 mmHg 66%
19:00 +23°C° 0 mm 2 m/S 751 mmHg 74%
20:00 +20°C° 0 mm 2 m/S 750 mmHg 83%
21:00 +19°C° 0 mm 2 m/S 751 mmHg 84%
22:00 +18°C° 0 mm 2 m/S 751 mmHg 86%
23:00 +17°C° 0 mm 2 m/S 751 mmHg 88%

20 Juni, Sonntag

Zeit Temperatur Niederschläge Wind Luftdruck Luftfeuchtigkeit
00:00 +17°C° 0 mm 2 m/S 751 mmHg 89%
01:00 +16°C° 0 mm 2 m/S 751 mmHg 91%
02:00 +16°C° 0 mm 2 m/S 751 mmHg 92%
03:00 +16°C° 0 mm 2 m/S 751 mmHg 90%
04:00 +18°C° 0 mm 1 m/S 751 mmHg 88%
05:00 +18°C° 0 mm 1 m/S 751 mmHg 86%
06:00 +20°C° 0 mm 1 m/S 751 mmHg 79%
07:00 +21°C° 0 mm 2 m/S 751 mmHg 73%
08:00 +24°C° 0 mm 2 m/S 751 mmHg 66%
09:00 +25°C° 0 mm 2 m/S 751 mmHg 62%
10:00 +26°C° 0 mm 2 m/S 750 mmHg 58%
11:00 +27°C° 0 mm 3 m/S 750 mmHg 53%
12:00 +28°C° 0 mm 3 m/S 750 mmHg 52%
13:00 +29°C° 0 mm 3 m/S 750 mmHg 51%
14:00 +29°C° 0 mm 3 m/S 750 mmHg 49%
15:00 +29°C° 0 mm 3 m/S 749 mmHg 53%
16:00 +29°C° 0 mm 3 m/S 749 mmHg 56%
17:00 +28°C° 0 mm 2 m/S 749 mmHg 59%
18:00 +27°C° 0 mm 2 m/S 749 mmHg 68%
19:00 +25°C° 0 mm 2 m/S 749 mmHg 76%
20:00 +23°C° 0 mm 2 m/S 749 mmHg 85%
21:00 +21°C° 0 mm 2 m/S 749 mmHg 87%
22:00 +21°C° 0 mm 2 m/S 749 mmHg 90%
23:00 +20°C° 0 mm 2 m/S 749 mmHg 92%

21 Juni, Montag

Zeit Temperatur Niederschläge Wind Luftdruck Luftfeuchtigkeit
00:00 +19°C° 0 mm 2 m/S 749 mmHg 93%
01:00 +19°C° 0 mm 2 m/S 749 mmHg 94%
02:00 +19°C° 0 mm 2 m/S 749 mmHg 95%
03:00 +20°C° 0.1 mm 1 m/S 749 mmHg 94%
04:00 +20°C° 0.1 mm 1 m/S 749 mmHg 92%
05:00 +21°C° 0.1 mm 1 m/S 749 mmHg 91%
06:00 +23°C° 0 mm 1 m/S 749 mmHg 84%
07:00 +24°C° 0 mm 1 m/S 749 mmHg 78%
08:00 +26°C° 0 mm 1 m/S 749 mmHg 71%
09:00 +27°C° 0 mm 2 m/S 749 mmHg 66%
10:00 +28°C° 0 mm 2 m/S 749 mmHg 61%
11:00 +29°C° 0 mm 2 m/S 749 mmHg 56%
12:00 +30°C° 0 mm 2 m/S 749 mmHg 54%
13:00 +30°C° 0 mm 2 m/S 749 mmHg 52%
14:00 +31°C° 0 mm 3 m/S 749 mmHg 51%
15:00 +30°C° 0 mm 2 m/S 749 mmHg 53%
16:00 +30°C° 0 mm 2 m/S 748 mmHg 56%
17:00 +30°C° 0 mm 2 m/S 748 mmHg 59%
18:00 +28°C° 0 mm 2 m/S 748 mmHg 65%
19:00 +26°C° 0 mm 2 m/S 748 mmHg 72%
20:00 +24°C° 0 mm 1 m/S 748 mmHg 79%
21:00 +23°C° 0 mm 1 m/S 748 mmHg 80%
22:00 +21°C° 0 mm 2 m/S 748 mmHg 81%
23:00 +20°C° 0 mm 2 m/S 749 mmHg 83%

22 Juni, Dienstag

Zeit Temperatur Niederschläge Wind Luftdruck Luftfeuchtigkeit
00:00 +21°C° 0 mm 1 m/S 749 mmHg 84%
01:00 +20°C° 0 mm 1 m/S 749 mmHg 86%
02:00 +20°C° 0 mm 1 m/S 749 mmHg 88%
03:00 +20°C° 0 mm 1 m/S 749 mmHg 86%
04:00 +21°C° 0 mm 1 m/S 749 mmHg 85%
05:00 +21°C° 0 mm 1 m/S 749 mmHg 84%
06:00 +23°C° 0 mm 1 m/S 749 mmHg 77%
07:00 +25°C° 0 mm 1 m/S 749 mmHg 70%
08:00 +27°C° 0 mm 1 m/S 750 mmHg 63%
09:00 +28°C° 0 mm 2 m/S 750 mmHg 58%
10:00 +29°C° 0 mm 2 m/S 750 mmHg 54%
11:00 +31°C° 0 mm 2 m/S 750 mmHg 49%
12:00 +31°C° 0 mm 2 m/S 750 mmHg 47%
13:00 +32°C° 0 mm 2 m/S 750 mmHg 46%
14:00 +32°C° 0 mm 2 m/S 749 mmHg 44%
15:00 +32°C° 0 mm 2 m/S 749 mmHg 48%
16:00 +31°C° 0 mm 1 m/S 749 mmHg 51%
17:00 +31°C° 0 mm 1 m/S 749 mmHg 55%
18:00 +29°C° 0 mm 1 m/S 749 mmHg 62%
19:00 +27°C° 0 mm 1 m/S 749 mmHg 69%
20:00 +25°C° 0 mm 1 m/S 749 mmHg 76%
21:00 +25°C° 0 mm 1 m/S 749 mmHg 78%
22:00 +24°C° 0 mm 1 m/S 749 mmHg 80%
23:00 +23°C° 0 mm 1 m/S 749 mmHg 82%
Mehr zeigen

Wir brauchen deine Erlaubnis

Meteoprog und unser Service Anbieter werden persönliche Daten aufbewahren, so wie Cookies, Geräte Bezeichnung oder ähnliche Technologien von deinem Gerät und Prozess, so wie Persönliche Daten Inhalte und Werbungen, genauso wie social Media und den Verkehr zu analysieren.

  • Aufbewahrung und/oder Zugang zu deiner Geräte Informationen.

    Cookies, Geräte Bezeichnung oder andere Informationen, können aufbewahrt oder Zugang zu deinem Gerät erhalten, für den Grund, der oben angegeben wird.

  • Personalisierte Werbung und Inhalte, Messungen, Einblick in das Publikum und Produkt Entwicklung.

    Werbungen und Inhalte können personalisiert werden, basierend auf ein Profil. Mehr Daten können besser personalisierte Werbungen und Inhalte hinzufügen. Werbung und Inhalte können gezeigt und gemessen werden. Einblicke über das Publikum, welche die Werbung gesehen haben und den Inhalt, können abgeleitet werden. So wie Daten können genutzt werden, um es zu verbessern oder die Benutzer Erfahrung zu verbessern das System und die Software.

Wenn du “Ich stimme zu” klickst, erlaubst du uns, die Cookies zu benutzen die Geräte Bezeichnung, den Web oder ähnliche Technologien zu benutzen. Deine Settings, können in deinem Gerät bei deinem Browser geändert werden.

Für den bestimmten Zweck, berechtigten Interessen beruhen darauf, mehr als auf den Inhalt. Du kannst mehr darüber in unseren Privaten und Cookie Politik lesen.